TimePDT,TemperatureF,Dew PointF,Humidity,Sea Level PressureIn,VisibilityMPH,Wind Direction,Wind SpeedMPH,Gust SpeedMPH,PrecipitationIn,Events,Conditions,WindDirDegrees,DateUTC
12:15 AM,57.2,53.6,88,29.85,10.0,SSE,12.7,23.0,0.00,,Mostly Cloudy,160,2013-10-07 07:15:00
12:35 AM,57.2,53.6,88,29.86,10.0,SSE,11.5,16.1,0.00,,Overcast,150,2013-10-07 07:35:00
12:55 AM,57.2,53.6,88,29.86,10.0,SSE,15.0,24.2,0.00,,Overcast,160,2013-10-07 07:55:00
1:15 AM,57.2,55.4,94,29.86,10.0,South,12.7,24.2,0.00,,Overcast,170,2013-10-07 08:15:00
1:35 AM,57.2,55.4,94,29.88,10.0,South,11.5,18.4,0.00,,Overcast,170,2013-10-07 08:35:00
1:55 AM,57.2,55.4,94,29.88,10.0,South,9.2,17.3,0.00,,Overcast,170,2013-10-07 08:55:00
2:15 AM,57.2,55.4,94,29.88,10.0,SSE,8.1,-,0.00,,Overcast,160,2013-10-07 09:15:00
2:35 AM,55.4,55.4,100,29.89,10.0,South,9.2,-,0.00,,Overcast,170,2013-10-07 09:35:00
2:55 AM,55.4,55.4,100,29.89,10.0,South,8.1,-,0.00,,Overcast,170,2013-10-07 09:55:00
3:15 AM,55.4,55.4,100,29.88,10.0,South,8.1,-,0.00,,Overcast,170,2013-10-07 10:15:00
3:35 AM,55.4,55.4,100,29.88,10.0,SSE,8.1,-,0.00,,Overcast,160,2013-10-07 10:35:00
3:55 AM,55.4,55.4,100,29.88,10.0,SSE,8.1,17.3,0.00,,Overcast,150,2013-10-07 10:55:00
4:15 AM,55.4,55.4,100,29.88,10.0,SE,8.1,-,0.00,,Overcast,140,2013-10-07 11:15:00
4:35 AM,55.4,55.4,100,29.88,10.0,SSE,10.4,-,0.00,,Overcast,150,2013-10-07 11:35:00
4:55 AM,55.4,55.4,100,29.88,10.0,SSE,8.1,-,0.00,,Overcast,160,2013-10-07 11:55:00
5:15 AM,55.4,55.4,100,29.87,10.0,SSE,8.1,16.1,0.00,,Overcast,150,2013-10-07 12:15:00
5:35 AM,55.4,55.4,100,29.87,10.0,SE,6.9,-,0.00,,Overcast,140,2013-10-07 12:35:00
5:55 AM,55.4,53.6,94,29.87,10.0,SE,10.4,-,0.00,,Overcast,140,2013-10-07 12:55:00
6:15 AM,55.4,53.6,94,29.88,10.0,SSE,8.1,16.1,0.00,,Overcast,150,2013-10-07 13:15:00
6:35 AM,55.4,53.6,94,29.87,10.0,SE,9.2,-,0.00,,Overcast,140,2013-10-07 13:35:00
6:55 AM,55.4,53.6,94,29.87,10.0,SSE,11.5,16.1,0.00,,Overcast,150,2013-10-07 13:55:00
7:15 AM,55.4,53.6,94,29.87,10.0,SSE,10.4,17.3,0.00,,Overcast,160,2013-10-07 14:15:00
7:35 AM,55.4,53.6,94,29.88,10.0,South,8.1,-,0.00,,Overcast,170,2013-10-07 14:35:00
7:55 AM,55.4,53.6,94,29.89,9.0,SSW,10.4,-,0.00,,Overcast,200,2013-10-07 14:55:00
8:15 AM,53.6,53.6,100,29.89,1.5,South,9.2,-,0.06,,Overcast,190,2013-10-07 15:15:00
8:35 AM,53.6,53.6,100,29.90,1.0,SSW,9.2,-,0.13,,Overcast,210,2013-10-07 15:35:00
8:55 AM,53.6,53.6,100,29.91,1.5,SW,6.9,-,0.18,,Overcast,220,2013-10-07 15:55:00
9:15 AM,53.6,53.6,100,29.91,8.0,SSW,6.9,-,0.00,,Mostly Cloudy,210,2013-10-07 16:15:00
9:35 AM,53.6,53.6,100,29.92,9.0,South,4.6,-,0.01,,Overcast,180,2013-10-07 16:35:00
9:55 AM,53.6,53.6,100,29.93,9.0,South,5.8,-,0.02,,Overcast,170,2013-10-07 16:55:00
10:15 AM,53.6,53.6,100,29.94,10.0,SSW,3.5,-,0.00,,Overcast,200,2013-10-07 17:15:00
10:35 AM,53.6,53.6,100,29.94,10.0,SSW,5.8,-,0.00,,Overcast,200,2013-10-07 17:35:00
10:55 AM,55.4,55.4,100,29.95,10.0,SSW,4.6,-,0.00,,Overcast,210,2013-10-07 17:55:00
11:15 AM,53.6,53.6,100,29.95,9.0,SSW,8.1,-,0.00,,Overcast,210,2013-10-07 18:15:00
11:35 AM,55.4,53.6,94,29.95,9.0,SW,4.6,-,0.00,,Overcast,230,2013-10-07 18:35:00
11:55 AM,57.2,53.6,88,29.95,8.0,SW,8.1,-,0.00,,Scattered Clouds,220,2013-10-07 18:55:00
12:15 PM,55.4,53.6,94,29.96,8.0,WSW,8.1,-,0.00,,Mostly Cloudy,240,2013-10-07 19:15:00
12:35 PM,57.2,53.6,88,29.97,10.0,West,8.1,-,0.00,,Mostly Cloudy,260,2013-10-07 19:35:00
12:55 PM,57.2,51.8,82,29.97,10.0,West,6.9,-,0.00,,Mostly Cloudy,260,2013-10-07 19:55:00
1:15 PM,60.8,51.8,72,29.97,10.0,WNW,10.4,18.4,0.00,,Mostly Cloudy,290,2013-10-07 20:15:00
1:35 PM,57.2,50.0,77,29.97,10.0,West,4.6,16.1,0.00,,Overcast,270,2013-10-07 20:35:00
1:55 PM,59.0,50.0,72,29.97,10.0,West,8.1,-,0.00,,Mostly Cloudy,270,2013-10-07 20:55:00
2:15 PM,60.8,50.0,68,29.97,10.0,West,4.6,-,0.00,,Scattered Clouds,270,2013-10-07 21:15:00
2:35 PM,60.8,48.2,63,29.97,7.0,WSW,9.2,20.7,0.00,,Overcast,240,2013-10-07 21:35:00
2:55 PM,60.8,48.2,63,29.98,7.0,West,9.2,16.1,0.00,,Mostly Cloudy,270,2013-10-07 21:55:00
3:15 PM,59.0,48.2,67,29.99,8.0,WSW,8.1,-,0.00,,Mostly Cloudy,240,2013-10-07 22:15:00
3:35 PM,57.2,50.0,77,29.99,5.0,WSW,9.2,-,0.00,,Overcast,240,2013-10-07 22:35:00
3:55 PM,57.2,50.0,77,29.99,10.0,SW,9.2,16.1,0.00,,Overcast,220,2013-10-07 22:55:00
4:15 PM,57.2,50.0,77,29.99,7.0,WSW,4.6,17.3,0.00,,Mostly Cloudy,240,2013-10-07 23:15:00
4:35 PM,57.2,50.0,77,29.99,9.0,SW,3.5,-,0.00,,Mostly Cloudy,220,2013-10-07 23:35:00
4:55 PM,55.4,48.2,77,29.99,10.0,SW,8.1,-,0.00,,Overcast,230,2013-10-07 23:55:00
5:15 PM,55.4,50.0,82,29.99,10.0,SW,8.1,-,0.00,,Overcast,220,2013-10-08 00:15:00
5:35 PM,55.4,50.0,82,29.99,10.0,SW,5.8,-,0.00,,Overcast,230,2013-10-08 00:35:00
5:55 PM,55.4,48.2,77,29.99,9.0,SW,6.9,-,0.00,,Overcast,230,2013-10-08 00:55:00
6:15 PM,55.4,50.0,82,29.99,10.0,SW,11.5,-,0.00,,Overcast,220,2013-10-08 01:15:00
6:35 PM,55.4,50.0,82,29.99,10.0,SW,6.9,-,0.00,,Overcast,220,2013-10-08 01:35:00
6:55 PM,53.6,51.8,94,29.99,8.0,SW,6.9,-,0.00,,Overcast,220,2013-10-08 01:55:00
7:15 PM,53.6,51.8,94,29.99,4.0,SW,5.8,-,0.00,,Overcast,220,2013-10-08 02:15:00
7:35 PM,51.8,51.8,100,29.99,5.0,SW,8.1,-,0.02,,Mostly Cloudy,220,2013-10-08 02:35:00
7:55 PM,51.8,51.8,100,29.99,10.0,SW,5.8,-,0.03,,Overcast,220,2013-10-08 02:55:00
8:15 PM,51.8,51.8,100,29.99,10.0,SSW,6.9,-,0.00,,Overcast,210,2013-10-08 03:15:00
8:35 PM,51.8,51.8,100,29.99,10.0,SSW,4.6,-,0.01,,Overcast,200,2013-10-08 03:35:00
8:55 PM,51.8,51.8,100,29.99,9.0,SSW,6.9,-,0.01,,Overcast,210,2013-10-08 03:55:00
9:15 PM,51.8,51.8,100,29.99,7.0,South,4.6,-,0.01,,Mostly Cloudy,190,2013-10-08 04:15:00
9:35 PM,51.8,51.8,100,30.00,6.0,South,6.9,-,0.04,,Overcast,190,2013-10-08 04:35:00
9:55 PM,51.8,51.8,100,29.99,10.0,South,5.8,-,0.04,,Overcast,180,2013-10-08 04:55:00
10:15 PM,51.8,51.8,100,29.99,10.0,South,5.8,-,0.00,,Overcast,180,2013-10-08 05:15:00
10:35 PM,51.8,51.8,100,29.99,10.0,South,10.4,-,0.00,,Overcast,180,2013-10-08 05:35:00
10:55 PM,51.8,51.8,100,29.99,7.0,SSW,8.1,20.7,0.01,,Overcast,200,2013-10-08 05:55:00
11:15 PM,51.8,51.8,100,29.99,8.0,SSW,12.7,20.7,0.00,,Overcast,210,2013-10-08 06:15:00
11:35 PM,51.8,51.8,100,29.99,10.0,SW,10.4,17.3,0.00,,Overcast,220,2013-10-08 06:35:00
11:55 PM,53.6,51.8,94,29.99,10.0,WSW,9.2,-,0.00,,Overcast,240,2013-10-08 06:55:00